Location: Smithers
(54.7670°N, 127.1670°W)
Time: 16:16:26
(UTC-08:00)

Daily predictions for brighter satellites

Satellite Brightness Start Highest point End
(mag) Time Altitude Azimuth Time Altitude Azimuth Time Altitude Azimuth
Cosmos 1782 Rocket 3.7 18:19:25 10° S 18:23:46 56° E 18:28:10 10° NNE
Cosmos 2322 Rocket 2.5 18:21:24 10° NW 18:27:02 76° WSW 18:32:38 10° SSE
Genesis I 3.7 18:23:25 10° NW 18:27:13 43° NNE 18:31:01 10° ESE
Meteor 1-14 Rocket 4.5 18:22:05 10° S 18:27:55 57° E 18:33:47 10° NNE
Cosmos 2181 Rocket 4.4 18:22:25 10° N 18:28:16 41° ENE 18:34:09 10° SE
Timation 2 Rocket 4.3 18:23:14 10° SW 18:30:10 86° NW 18:37:05 10° NE
COSMO-SKYMED 1 2.8 18:26:08 10° NNE 18:30:24 51° E 18:34:38 10° S
Thor Agena Rocket 3.5 18:30:26 10° NNE 18:35:33 81° ESE 18:40:37 10° SSW
Okean 1 3.4 18:32:10 10° N 18:36:11 55° ENE 18:40:11 10° SSE
Cosmos 2322 3.8 18:34:07 10° NNW 18:39:50 62° NE 18:45:30 10° SE
Cosmos 1461 3.9 18:36:15 10° NW 18:40:06 48° SW 18:44:00 10° SSE
Okean 2 Rocket 3.1 18:38:16 10° S 18:42:40 65° E 18:47:04 10° NNE
Cosmos 1346 Rocket 4.5 18:39:37 10° NNW 18:43:20 39° W 18:47:00 10° SSW
USA 186 3.5 18:42:23 11° E 18:43:35 13° ENE 18:45:07 10° NNE
CZ-2D R/B 4.4 18:40:47 10° ESE 18:43:54 24° ENE 18:47:03 10° N
Resurs 1-3 4.3 18:40:09 10° SE 18:44:06 34° ENE 18:48:05 10° N
OPS 6432 4.4 18:41:10 10° WSW 18:44:15 69° NW 18:47:20 10° NE
Cosmos 1833 Rocket 3.3 18:40:24 10° SW 18:45:57 60° NW 18:51:33 10° NNE
RESURS DK-1 3.2 18:42:39 10° SW 18:46:43 51° NW 18:50:49 10° NNE
Cosmos 1315 Rocket 4.4 18:46:01 10° SW 18:49:43 38° WNW 18:53:26 10° N
Cosmos 1190 Rocket 4.4 18:45:10 10° S 18:50:01 41° ESE 18:54:54 10° NE
FENGYUN 3A 3.7 18:46:13 10° SE 18:51:31 58° ENE 18:56:51 10° N
Cosmos 1812 3.0 18:48:43 10° NNW 18:52:35 71° W 18:56:26 10° S
COSMOS 2428 3.0 18:47:20 10° NNW 18:52:52 48° NE 18:58:22 10° ESE
H-2A R/B 3.3 18:49:30 10° SE 18:52:55 34° ENE 18:56:22 10° N
Cosmos 2237 4.4 18:47:47 10° NNW 18:53:29 57° NE 18:59:07 10° SE
Meteor 2-4 Rocket 4.1 18:48:42 10° N 18:54:04 41° ENE 18:59:15 10° SE
Cosmos 1709 Rocket 4.3 18:50:11 10° SSE 18:56:00 44° E 19:01:47 10° NNE
SAR-Lupe-4 4.3 18:56:02 10° SE 18:59:14 31° ENE 19:02:27 10° N
SL-19 R/B 4.4 18:54:07 10° SE 18:59:48 66° ENE 19:05:56 10° NNW
Spot 2 Rocket 3.6 18:55:21 10° SE 19:00:17 55° ENE 19:05:16 10° N
Cosmos 2151 Rocket 3.8 18:57:00 10° S 19:01:22 51° E 19:05:48 10° NNE
Cosmos 2237 Rocket 3.2 18:56:57 10° NNW 19:01:56 29° NE 19:05:44 15° E
Helios 1A 3.7 18:59:12 10° SE 19:02:57 33° ENE 19:06:42 10° N
Meteor 1-25 Rocket 4.2 18:57:31 10° S 19:03:07 73° E 19:08:50 10° NNE
HJ-1C 3.3 19:04:29 10° SSE 19:07:51 68° ENE 19:11:14 10° N
Okean 1 Rocket 4.0 19:04:09 10° SE 19:07:55 27° E 19:11:41 10° NNE
USA 229 DEB 3.8 19:06:07 10° NW 19:13:12 74° NE 19:19:44 13° ESE
USA 229 3.8 19:06:13 10° NW 19:13:17 73° NE 19:19:48 13° ESE
Cosmos 2285 Rocket 4.3 19:07:19 10° NNW 19:13:36 49° NE 19:19:32 11° SE
Cosmos 1745 Rocket 4.2 19:07:38 10° SSW 19:13:58 80° WNW 19:20:16 10° N
Helios 1B rocket 4.2 19:12:56 10° NE 19:20:32 - SSE 19:14:11 15° ENE
Envisat 3.8 19:13:16 15° ESE 19:16:40 31° ENE 19:21:06 10° N
Cosmos 1954 Rocket 4.5 19:13:02 10° S 19:17:46 36° ESE 19:22:33 10° NE
Meteor 1-11 Rocket 4.2 19:12:31 10° SSE 19:17:56 42° E 19:23:27 10° NNE
SKYMED 2 4.1 19:14:15 10° N 19:18:33 62° WNW 19:22:51 10° SSW
Cosmos 2360 Rocket 2.4 19:13:30 10° NW 19:19:10 75° WSW 19:24:49 10° SSE
Okean 1-7 Rocket 3.8 19:14:51 10° N 19:19:19 50° ENE 19:23:43 10° SSE
Cosmos 2219 Rocket 2.5 19:16:45 10° NNW 19:22:10 46° NE 19:25:54 19° ESE
NOSS 3-4 (A) 4.2 19:16:08 10° WSW 19:22:27 55° NNW 19:29:04 10° NE
NOSS 3-4 (C) 4.2 19:16:15 10° WSW 19:22:33 55° NNW 19:29:12 10° NE
Cosmos 1386 Rocket 4.5 19:17:45 10° S 19:23:52 86° W 19:29:56 10° N
Cosmos 1633 2.8 19:20:43 10° SSE 19:24:14 45° E 19:27:48 10° NNE
NOSS 3-1 (A) 4.2 19:18:41 10° NW 19:25:29 53° NNE 19:30:52 20° E
FREGAT/IRIS 4.0 19:22:43 10° S 19:25:40 43° W 19:28:40 10° NNW
Cosmos 1602 4.0 19:22:00 10° SSE 19:25:43 45° E 19:29:29 10° NNE
Okean 2 4.1 19:22:47 10° N 19:26:35 32° ENE 19:28:11 24° ESE
ERS-1 Rocket 4.0 19:25:34 22° E 19:27:21 27° ENE 19:31:32 10° N
NOSS 2-2 (E) 3.8 19:23:13 10° SW 19:27:34 90° SSE 19:32:32 13° NE
H-2A R/B 4.0 19:26:52 12° NE 19:27:46 13° NE 19:30:03 10° NNE
Cosmos 1025 Rocket 3.3 19:24:28 10° N 19:28:43 47° ENE 19:32:28 13° SE
ATLAS 2AS CENTAUR R/B 3.8 19:23:06 10° WNW 19:30:52 45° N 19:36:50 17° ENE
NOSS 5 (C) 4.0 19:27:52 10° SW 19:31:02 89° SE 19:32:33 27° NE
SL-16 R/B 3.4 19:29:02 10° NNW 19:33:48 26° NNE 19:36:07 20° ENE
USA 215 3.3 19:29:06 18° ENE 19:34:11 78° N 19:40:43 10° W
CZ-4B DEB 3.1 19:36:40 39° ENE 19:36:47 39° ENE 19:39:45 10° N
ALOS 2.8 19:35:45 10° S 19:40:22 62° WSW 19:45:03 10° NNW
Spot 1 3.8 19:38:10 10° SSE 19:42:14 77° ENE 19:46:26 10° NNW
NOSS 3-1 (C) 4.0 19:39:25 10° NW 19:46:26 65° NNE 19:51:11 26° ESE
Cosmos 1340 4.0 19:43:56 10° NNW 19:47:33 41° W 19:51:07 10° SSW
NOSS 2-2 (D) 3.9 19:43:45 10° SW 19:48:06 78° NW 19:52:11 17° NE
Cosmos 2333 Rocket 2.4 19:42:34 10° NNW 19:48:15 56° NE 19:51:04 29° ESE
Cosmos 1833 4.3 19:43:35 10° S 19:49:04 52° ESE 19:54:34 10° NE
ATLAS CENTAUR R/B 3.1 19:47:55 10° W 19:51:44 28° NNW 19:54:30 15° NNE
Cosmos 1818 3.6 19:48:06 10° SSW 19:53:28 59° SE 19:56:40 24° ENE
Cosmos 2082 Rocket 4.0 19:51:03 10° W 19:55:55 28° NNW 20:00:49 10° NNE
Cosmos 841 Rocket 4.2 19:52:15 10° NNW 19:56:56 33° NE 19:57:47 31° ENE
Cosmos 1238 Rocket 3.9 19:54:46 10° NNW 19:57:42 33° W 20:00:25 10° SSW
Resurs 01 Rocket 2.5 19:53:38 10° S 19:57:56 51° W 20:02:16 10° NNW
Cosmos 1741 Rocket 4.4 19:53:29 10° S 19:58:17 38° ESE 19:59:13 35° E
SPOT 5 4.0 19:59:25 27° NE 19:59:25 27° NE 20:03:34 10° N
NOSS 0 Rocket 3.9 19:54:03 10° NNW 20:00:14 69° NE 20:03:16 31° SE
Cosmos 1980 3.8 19:54:47 10° NNW 20:00:22 55° NE 20:02:25 36° ESE
Cosmos 1023 Rocket 4.4 19:56:03 10° S 20:01:03 59° ESE 20:06:09 10° NNE
Cosmos 1939 Rocket 2.9 20:03:28 51° ENE 20:03:29 51° ENE 20:07:21 10° N
Cosmos 1570 Rocket 4.4 19:59:23 10° NNW 20:04:33 62° WSW 20:09:42 10° S
Genesis I 4.3 20:01:12 10° WNW 20:04:56 40° SW 20:06:58 22° S
NOSS 2-2 (C) 4.1 20:01:04 10° WSW 20:05:25 64° NNW 20:08:56 21° NE
TSX-5 4.3 20:02:23 10° SSW 20:04:24 35° S 20:04:24 35° S
SL-08 ROCKET BODY 4.4 19:59:57 10° S 20:06:03 67° E 20:12:13 10° NNE
Cosmos 407 Rocket 3.8 20:00:52 10° SW 20:06:07 69° WNW 20:11:29 10° NNE
Cosmos 676 Rocket 4.0 20:03:08 10° SSW 20:08:21 85° WNW 20:13:39 10° NNE
Cosmos 1763 Rocket 3.7 20:07:23 10° NNW 20:12:18 45° NE 20:12:54 43° ENE
USA 186 2.2 20:13:48 55° WSW 20:13:54 56° W 20:16:50 10° NNW
Cosmos 1536 2.6 20:09:57 10° S 20:13:57 83° E 20:17:58 10° NNE
Cosmos 1300 Rocket 3.9 20:09:56 10° SSW 20:14:20 67° WNW 20:18:48 10° N
Meteor 1-5 Rocket 4.3 20:11:28 10° S 20:17:20 61° E 20:23:08 10° NNE
Cosmos 405 Rocket 2.7 20:13:17 10° NNW 20:17:24 76° ENE 20:17:35 74° ESE
CZ-2D R/B 4.4 20:14:31 10° S 20:18:09 43° W 20:21:50 10° NNW
Cosmos 2327 Rocket 4.4 20:14:54 10° S 20:21:07 73° E 20:27:28 10° NNE
Cosmos 1140 Rocket 3.4 20:25:36 10° SSW 20:30:46 87° WNW 20:36:00 10° NNE
Cosmos 468 Rocket 3.9 20:27:39 10° NNW 20:32:54 84° WSW 20:34:16 51° SSE
USA 32 4.0 20:28:51 10° N 20:33:54 59° ENE 20:33:54 59° ENE
COSMOS 2428 3.7 20:31:47 10° NW 20:37:09 44° WSW 20:41:08 17° S
MetOp-A 4.2 20:38:04 57° ENE 20:38:04 57° ENE 20:43:18 10° N
Helios 1A 4.5 20:34:47 11° SSW 20:38:31 35° W 20:42:23 10° NNW
Meteor 2-8 Rocket 4.4 20:32:31 10° N 20:38:33 61° ENE 20:39:14 58° ESE
Cosmos 2074 Rocket 4.0 20:34:05 10° SSW 20:40:21 83° W 20:46:43 10° N
Cosmos 2184 Rocket 4.0 20:34:54 10° SSW 20:41:14 85° W 20:47:33 10° N
Cosmos 614 Rocket 3.8 20:37:42 10° SSW 20:42:47 89° WNW 20:45:33 28° NNE
Cosmos 1892 Rocket 3.8 20:39:24 10° NNW 20:43:43 66° W 20:44:07 61° SW
Cosmos 1066 Rocket 4.1 20:37:56 10° N 20:43:43 70° ENE 20:44:04 68° E
H-2A R/B 4.0 20:46:35 19° NNE 20:46:35 19° NNE 20:48:09 10° N
Okean 1 Rocket 4.1 20:41:18 10° SW 20:45:38 46° WNW 20:49:59 10° N
Cosmos 2237 Rocket 2.1 20:40:58 10° NW 20:46:43 88° WSW 20:47:35 66° SSE
Cosmos 1814 Rocket 3.9 20:43:04 10° NNW 20:48:18 82° WSW 20:48:44 74° S
Cosmos 1850 Rocket 3.9 20:44:51 10° SSW 20:50:11 89° SE 20:55:35 10° NNE
GEOS 3 Rocket 3.5 20:50:30 60° NE 20:51:29 86° NW 20:56:46 10° SW
Helios 1B rocket 3.3 20:47:32 10° N 20:56:54 - SSW 20:50:38 46° NNW
Nadezhda 3 Rocket 4.0 20:48:16 10° NNW 20:54:26 78° W 20:56:50 40° S
Cosmos 332 Rocket 4.0 20:49:55 10° NNW 20:54:10 63° N 20:54:10 63° N
Envisat 3.6 20:53:28 33° SSW 20:55:29 54° W 21:00:31 10° NNW
Cosmos 2341 Rocket 4.2 21:02:00 56° NE 21:02:00 56° NE 21:07:19 10° NNE
ERS-1 Rocket 3.2 21:05:34 64° WSW 21:05:48 65° WSW 21:10:51 10° NNW
H-2A R/B 3.1 21:07:30 36° NNE 21:07:30 36° NNE 21:11:09 10° N
Cosmos 2219 Rocket 3.0 21:00:51 10° NW 21:06:10 45° WSW 21:07:40 37° SSW
Cosmos 371 Rocket 3.9 21:02:14 10° NNW 21:05:55 50° N 21:05:55 50° N
Cosmos 2219 3.9 21:01:31 10° SSW 21:05:17 43° SSW 21:05:17 43° SSW
ARGOS 3.5 21:10:18 56° NNE 21:10:18 56° NNE 21:14:41 10° NNW
Cosmos 2154 Rocket 3.9 21:08:36 60° S 21:09:52 88° E 21:16:16 10° NNE
NOSS 3-1 (A) 3.9 21:09:43 10° NW 21:16:59 77° SW 21:18:20 63° SSE
USA 215 3.1 21:16:26 71° ENE 21:17:07 79° NNE 21:23:40 10° WNW
SL-16 R/B 2.4 21:13:04 10° NNW 21:18:01 66° N 21:18:01 66° N
Cosmos 1727 Rocket 4.4 21:12:52 10° N 21:17:54 49° NNE 21:17:54 49° NNE
Terra 3.8 21:25:50 21° N 21:25:50 21° N 21:27:33 10° N
ATLAS 2AS CENTAUR R/B 3.1 21:15:07 10° NW 21:23:16 64° NNE 21:24:17 59° ENE
ATLAS CENTAUR R/B 3.8 21:28:42 10° NW 21:30:47 19° NNW 21:30:47 19° NNW
Cosmos 2333 Rocket 3.3 21:27:08 10° NW 21:32:22 37° WSW 21:33:07 36° SW
SPOT 5 4.0 21:38:39 41° NW 21:38:39 41° NW 21:42:07 10° NNW
Cosmos 1818 4.4 21:31:59 10° WSW 21:37:15 47° NNW 21:37:21 47° NNW
NOSS 3-1 (C) 4.3 21:30:22 10° NW 21:37:29 55° SW 21:38:37 51° SSW
Cosmos 841 Rocket 4.4 21:34:04 10° NNW 21:37:54 45° WNW 21:37:54 45° WNW
Cosmos 2237 Rocket 4.3 22:26:01 10° NW 22:29:26 20° W 22:29:26 20° W
H-2A R/B 4.2 22:48:07 24° NW 22:48:07 24° NW 22:50:35 10° NNW
SL-16 R/B 4.5 22:57:54 10° NW 22:59:54 18° WNW 22:59:54 18° WNW
ATLAS 2AS CENTAUR R/B 4.0 23:06:31 10° NW 23:11:43 41° WNW 23:11:43 41° WNW
